User: anonymous   Login
Location: Muenchen
(48.1800°N, 11.5800°E)
Time: 08:36:58
(UTC+01:00)
Language:

ISS - Orbit

View from above orbital plane
View from above orbital plane
View from above satellite
View from above satellite

Ground track
Ground track

The orbit data is extracted from the following two-line orbital elements,

1 25544U 98067A   14352.23342600  .00030151  00000-0  48999-3 0  5836
2 25544 051.6481 266.8893 0007753 144.5668 017.4750 15.52408735919884
Epoch (UTC): 18 December 2014 05:36:08
Eccentricity: 0.0007753
inclination: 51.6481°
perigee height: 404 km
apogee height: 415 km
right ascension of ascending node: 266.8893°
argument of perigee: 144.5668°
revolutions per day: 15.52408735
mean anomaly at epoch: 17.4750°
orbit number at epoch: 91988

The dashed part of the orbit path shows where the satellite is in the earth's shadow,  

DLR